Location: Sternwarte_Laufen
(47.9344°N, 12.9346°E)
Time: 01:14:23
(UTC+02:00)

Envisat - Pass Details

Date: 11 May 2026
Orbit: 761 x 763 km, 98.4° (Epoch: 7 June)

Event Time Altitude Azimuth Distance (km) Brightness Sun altitude
Rises 03:25:21 0° 18° (NNE) 3,236 7.7 -17.1°
Reaches altitude 10° 03:27:44 10° 24° (NNE) 2,305 6.7 -16.9°
Maximum altitude 03:32:40 50° 99° (E) 970 3.7 -16.4°
Enters shadow 03:36:47 14° 172° (S) 1,995 4.8 -16.0°
